Showing default

COSMOS 2424 (GLONASS), 29672

Orbit data source: Space-Track

COSMOS 2424 (GLONASS), 29672 is a Commonwealth of Independent States-origin payload satellite in MEO that was launched on Mon, 25 Dec 2006 UTC via a PROTON-K/DM-2 launch vehicle from the Tyuratam Missile And Space Complex (TTMTR). Payload-class satellites include a variety of spacecraft equipped with specific instruments for various scientific and technological missions. These include communications satellites like Starlink; space stations such as the ISS; scientific satellites like the Hubble; Earth observation satellites from companies like Planet Labs, Umbra, and HawkEye 360; GPS; miniature CubeSats for education and research; and military/defense satellites.

Loading next visibility...
Identifier
29672, 2006-062C
Orbit
MEO
Country
Flag of CISCIS
Related business
Manufacturer
Resehetnev ISS
Mission
Non-operational Defense Navigation
Bus & Motor
URAGAN, Unknown motor
Mass
1,450 kg wet, ~1,200 kg dry
Launch date (UTC)
2006-12-25 (19 years ago)
Launch vehicle
PROTON-K/DM-2
Launch site
Tyuratam Missile And Space Complex (TTMTR)
Object type
Payload
Rocket body
Debris
Shape & HBR
Cyl + 1 Arm + 2 Pan, 3.9 m
Radar Cross Section
8.145 m², Large (>1 m²)

Expand to show TLE details & history
Last TLE update: 1 day ago

TLE from 1 day ago
0 COSMOS 2424 (GLONASS)
1 29672U 06062C   26124.25362794  .00000037  00000-0  00000-0 0  9993
2 29672  64.6944 195.7614 0019824 175.6941 184.3993  2.13122937150644
Epoch: 2026-05-04T06:05Z
TLE epoch observation values (Epoch: 2026-05-04T06:05:13.454Z)
Latitude
Longitude
-117.69064°
Altitude
19,179.205 km
Speed
3.945 km/s
True Right ascension
13h 03m 02s
True Declination
0° 00' 00"
Sunlit
Object was in daylight at epoch
Visualization orbit readout
Latitude
Unknown
Longitude
Unknown
Altitude
Unknown
Speed
Unknown
Apparent Right ascension
Unknown
Apparent Declination
Unknown
Sunlit
N/A
Visualization observer readout
Local Sidereal Time
18:11:17
Azimuth
Unknown
Elevation
Unknown
Doppler factor
Unknown
Orbital elements
Apogee altitude
19,178.405 km
Perigee altitude
19,077.279 km
Semi-major axis
25,505.979 km
Eccentricity
0.00198
Inclination
64.6944°
RAAN
195.7614°
Arg. of periapsis
175.6941°
True anomaly
184.38192°
Mean anomaly
184.3993°
Eccentric anomaly
184.3906°
Mean motion
0.53282 °/min
Orbital period
675.65 mins
BSTAR
0
Loading maneuver chart data...
Computing Atmospheric mass density...
Loading historical data...
Loading historical data...
Loading historical data...
Loading historical data...
Loading historical data...
Loading historical data...
Loading historical data...

Documentation

Showing up to 5 results
|